Location: Copper Breaks State Park
(34.1132°N, 99.7492°W)
Time: 12:50:56
(UTC-05:00)

Amateur Radio Satellites - All Passes

Search period start: 23 April 2017 12:20
Search period end: 24 April 2017 12:20
Location: Copper Breaks State Park, 34.1132°N, 99.7492°W

Satellite Date Start Highest point End Downlink Frequencies (MHz)
Time Altitude Azimuth
OBJECT BX 23 Apr 12:23:04 12:25:28 17° 290° (WNW) 12:27:51 145.990 - 145.960
QB50P2 23 Apr 12:25:59 12:30:07 56° 75° (ENE) 12:34:16 145.880/145.840
RS-15 23 Apr 12:31:39 12:38:49 17° 337° (NNW) 12:46:00 29.354- 29.394
PCSat 23 Apr 12:37:36 12:41:54 23° 54° (NE) 12:46:09 145.827
NANOSAT C BR1 23 Apr 12:51:44 12:55:57 83° 259° (W) 13:00:10 145.865
FO-29 23 Apr 12:53:17 12:56:46 15° 266° (W) 13:00:04 435.910
Oscar 19 23 Apr 13:03:28 13:05:42 13° 63° (ENE) 13:07:56 437.125/150
BUGSAT 1 23 Apr 13:05:56 13:09:46 36° 73° (ENE) 13:13:35 437.445
AIST 2D 23 Apr 13:10:48 13:13:03 16° 265° (W) 13:15:19 435.315
EO-79 23 Apr 13:17:28 13:21:20 35° 262° (W) 13:25:14 145.935-145.965
DUCHIFAT 1 23 Apr 13:24:03 13:27:55 36° 262° (W) 13:31:48 145.980
ESTCUBE 1 23 Apr 13:29:03 13:33:29 54° 285° (WNW) 13:37:54 437.505/2401.250
DX 1 23 Apr 13:29:10 13:30:48 12° 93° (E) 13:32:24 434.975-435.025
LO-87 23 Apr 13:39:58 13:41:53 14° 291° (WNW) 13:43:48 145.935 - 145.965
SPROUT 23 Apr 13:53:52 13:58:06 69° 101° (ESE) 14:02:19 437.525
POLYITAN 1 23 Apr 13:57:58 13:59:42 12° 267° (W) 14:01:26 437.675
VELOX 1 23 Apr 13:58:40 14:03:07 84° 103° (ESE) 14:07:31 145.980
Gurwin Techsat 1B 23 Apr 14:11:17 14:16:06 36° 71° (ENE) 14:20:55 435.225
PCSat 23 Apr 14:20:19 14:25:26 43° 250° (WSW) 14:30:30 145.827
AO-7 23 Apr 14:20:47 14:24:10 13° 52° (NE) 14:27:33 .
AO-85 23 Apr 14:30:02 14:34:23 62° 300° (WNW) 14:38:28 145.980
50 SAT 23 Apr 14:37:09 14:40:29 43° 285° (WNW) 14:43:47 437.505
UKube-1 23 Apr 14:37:37 14:41:52 55° 101° (E) 14:46:04 .
Oscar 19 23 Apr 14:39:17 14:44:23 66° 258° (WSW) 14:49:31 437.125/150
BUGSAT 1 23 Apr 14:42:56 14:45:12 14° 266° (W) 14:47:29 437.445
RS-15 23 Apr 14:52:59 14:59:07 15° 16° (NNE) 15:05:09 29.354- 29.394
DX 1 23 Apr 15:02:59 15:07:11 47° 287° (WNW) 15:11:21 434.975-435.025
BEESAT 2 23 Apr 15:28:53 15:32:18 29° 112° (ESE) 15:35:47 435.950
BEESAT 3 23 Apr 15:37:53 15:41:46 67° 300° (WNW) 15:45:44 437.485
BEESAT 23 Apr 15:42:10 15:45:41 20° 95° (E) 15:49:11 436.000
Gurwin Techsat 1B 23 Apr 15:51:54 15:56:03 23° 264° (W) 16:00:14 435.225
ITAMSAT 1 23 Apr 15:57:02 16:02:06 57° 73° (ENE) 16:07:11 435.822/435.867
AO-7 23 Apr 16:07:15 16:15:28 71° 70° (ENE) 16:23:42 .
MOZHAYETS 4 23 Apr 16:08:21 16:11:27 18° 94° (E) 16:14:32
UKube-1 23 Apr 16:16:14 16:17:21 11° 295° (WNW) 16:18:29 .
ITUPSAT 1 23 Apr 16:19:20 16:24:00 52° 100° (E) 16:28:39 437.325
YUBILEINY 23 Apr 16:38:43 16:47:17 55° 80° (E) 16:55:49 435.215
ISS 23 Apr 16:48:40 16:51:06 19° 33° (NNE) 16:53:33 437.550
Tancredo 1 23 Apr 16:53:57 16:56:37 25° 36° (NE) 16:59:16 437.200
RS-15 23 Apr 17:05:11 17:16:32 41° 48° (NE) 17:27:21 29.354- 29.394
BEESAT 2 23 Apr 17:07:09 17:10:04 19° 308° (NW) 17:13:01 435.950
BEESAT 23 Apr 17:19:12 17:23:28 34° 289° (WNW) 17:27:43 436.000
SO-50 23 Apr 17:24:28 17:28:57 67° 60° (ENE) 17:33:26 436.795
ITAMSAT 1 23 Apr 17:39:13 17:41:50 14° 267° (W) 17:44:28 435.822/435.867
MOZHAYETS 4 23 Apr 17:44:27 17:48:39 36° 287° (WNW) 17:52:50
ITUPSAT 1 23 Apr 17:58:53 18:01:21 14° 295° (WNW) 18:03:49 437.325
AO-7 23 Apr 18:02:57 18:08:45 21° 265° (W) 18:14:36 .
NUDT-PHONESAT 23 Apr 18:19:00 18:20:54 14° 69° (ENE) 18:22:48 437.300
CUTE-I 23 Apr 18:19:20 18:23:37 25° 68° (ENE) 18:27:54 437.470
KKS-1 23 Apr 18:22:20 18:26:48 84° 283° (WNW) 18:31:12 437.445
ISS 23 Apr 18:24:38 18:27:39 35° 228° (SW) 18:30:38 437.550
CUBESAT XI-V 23 Apr 18:25:24 18:30:07 83° 284° (WNW) 18:34:49 437.345
Tancredo 1 23 Apr 18:30:01 18:32:28 21° 230° (SW) 18:34:54 437.200
YUBILEINY 23 Apr 18:36:31 18:43:28 27° 276° (W) 18:50:28 435.215
XW-2D 23 Apr 18:42:04 18:45:32 38° 74° (ENE) 18:49:01 145.860 - 145.880
DOVE 4 23 Apr 18:45:54 18:51:11 78° 76° (ENE) 18:56:29 437.250
XW-2B 23 Apr 18:48:47 18:52:21 45° 75° (ENE) 18:55:56 145.730 - 145.750
LilacSat-2 23 Apr 18:55:28 18:59:10 61° 76° (ENE) 19:02:53 437.200
XW-2C 23 Apr 19:00:22 19:04:04 69° 77° (ENE) 19:07:47 145.795 - 145.815
HO-68 23 Apr 19:02:08 19:07:15 22° 61° (ENE) 19:12:21 435.675
STARS 23 Apr 19:04:10 19:08:29 66° 285° (WNW) 19:12:48 437.465
KAITUO 1B 23 Apr 19:06:49 19:10:26 64° 77° (ENE) 19:14:06 145.475/437.950
RS-15 23 Apr 19:17:42 19:29:23 58° 250° (WSW) 19:40:30 29.354- 29.394
XW-2A 23 Apr 19:24:43 19:25:59 12° 69° (ENE) 19:27:15 145.665 - 145.685
XW-2F 23 Apr 19:28:41 19:32:16 47° 260° (W) 19:35:53 145.980 - 146.000
JUGNU 23 Apr 19:47:41 19:51:26 17° 171° (S) 19:55:12 437.505
NUDT-PHONESAT 23 Apr 19:51:19 19:54:31 28° 263° (W) 19:57:44 437.300
CUTE-I 23 Apr 19:58:35 20:03:25 35° 262° (W) 20:08:17 437.470
CUTE 1.7 + AOD 2 23 Apr 20:00:14 20:04:08 39° 74° (ENE) 20:08:04 437.475
AAUSAT CUBESAT 2 23 Apr 20:11:34 20:13:56 15° 68° (ENE) 20:16:19 437.432
XW-2D 23 Apr 20:19:15 20:19:51 10° 267° (W) 20:20:27 145.860 - 145.880
UWE-3 23 Apr 20:24:53 20:28:02 20° 70° (ENE) 20:31:07 435.000/436.395/437.385
SEEDS 23 Apr 20:26:45 20:30:47 52° 75° (ENE) 20:34:52 437.485
DOVE 4 23 Apr 20:28:31 20:29:17 10° 270° (W) 20:30:03 437.250
CUBEBUG 2 23 Apr 20:29:37 20:33:46 39° 74° (ENE) 20:37:49 437.445
NO-84 23 Apr 20:36:22 20:39:49 33° 128° (SE) 20:43:00 435.350 FM
HO-68 23 Apr 20:47:15 20:54:18 64° 257° (WSW) 21:01:26 435.675
STRAND 1 23 Apr 20:51:21 20:56:24 61° 101° (ESE) 21:01:26 437.568
XW-2A 23 Apr 20:55:31 20:58:27 27° 262° (W) 21:01:22 145.665 - 145.685
SRMSAT 23 Apr 21:05:36 21:07:26 11° 164° (SSE) 21:09:17 437.500
M-CUBED/EXP-1 PRIME 23 Apr 21:17:53 21:22:06 71° 288° (WNW) 21:25:56 437.505
ZACube-1 23 Apr 21:26:58 21:31:09 60° 75° (ENE) 21:35:17 437.345
DELFI C3 23 Apr 21:28:08 21:28:53 10° 67° (ENE) 21:29:38 145.870
JUGNU 23 Apr 21:35:33 21:39:47 20° 182° (S) 21:44:02 437.505
AO-73 23 Apr 21:35:52 21:40:04 70° 77° (ENE) 21:44:13 145.935
CUTE 1.7 + AOD 2 23 Apr 21:38:04 21:40:06 13° 267° (W) 21:42:08 437.475
AAUSAT CUBESAT 2 23 Apr 21:45:17 21:49:02 35° 262° (W) 21:52:51 437.432
Oscar 11 23 Apr 21:55:28 21:59:45 81° 257° (WSW) 22:04:05 .
UWE-3 23 Apr 22:00:33 22:04:17 28° 263° (W) 22:07:57 435.000/436.395/437.385
O/OREOS (USA 219) 23 Apr 22:01:55 22:06:30 74° 70° (ENE) 22:11:02 437.305
CUBEBUG 2 23 Apr 22:08:02 22:10:28 14° 266° (W) 22:12:53 437.445
NO-84 23 Apr 22:14:42 22:17:22 19° 319° (NW) 22:19:54 435.350 FM
STRAND 1 23 Apr 22:32:32 22:35:00 14° 296° (WNW) 22:37:29 437.568
SRMSAT 23 Apr 22:51:51 22:55:54 19° 174° (S) 22:59:56 437.500
OBJECT BX 23 Apr 22:55:45 22:59:21 70° 259° (W) 23:02:59 145.990 - 145.960
TIGRISAT 23 Apr 22:56:37 22:59:51 21° 96° (E) 23:03:06 435.000
DELFI C3 23 Apr 22:59:21 23:03:10 47° 261° (W) 23:07:02 145.870
AO-85 23 Apr 23:04:36 23:08:14 33° 57° (ENE) 23:12:02 145.980
UNISAT 6 23 Apr 23:16:10 23:20:12 39° 99° (E) 23:24:14 437.425
JUGNU 23 Apr 23:24:47 23:28:07 15° 192° (SSW) 23:31:28 437.505
PRISM 23 Apr 23:44:19 23:48:21 50° 286° (WNW) 23:52:20 437.425
BEESAT 3 23 Apr 23:58:40 00:01:45 21° 53° (NE) 00:04:49 437.485
FO-29 24 Apr 00:02:36 00:07:50 84° 103° (ESE) 00:13:23 435.910
LO-87 24 Apr 00:10:30 00:14:06 63° 259° (W) 00:17:43 145.935 - 145.965
QB50P2 24 Apr 00:16:30 00:18:09 12° 93° (E) 00:19:48 145.880/145.840
ESTCUBE 1 24 Apr 00:24:18 00:28:47 85° 78° (ENE) 00:33:19 437.505/2401.250
TIGRISAT 24 Apr 00:32:55 00:36:28 26° 289° (WNW) 00:40:04 435.000
AIST 2D 24 Apr 00:38:08 00:41:30 42° 99° (E) 00:44:51 435.315
SRMSAT 24 Apr 00:40:14 00:44:24 20° 184° (S) 00:48:33 437.500
NANOSAT C BR1 24 Apr 00:40:28 00:43:34 20° 95° (E) 00:46:40 145.865
SPROUT 24 Apr 00:43:33 00:47:20 31° 72° (ENE) 00:51:07 437.525
AO-85 24 Apr 00:45:44 00:48:22 17° 249° (WSW) 00:51:05 145.980
VELOX 1 24 Apr 00:51:55 00:56:09 45° 73° (ENE) 01:00:24 145.980
UNISAT 6 24 Apr 00:54:12 00:56:33 15° 292° (WNW) 00:58:55 437.425
EO-79 24 Apr 01:05:23 01:09:25 45° 100° (E) 01:13:25 145.935-145.965
50 SAT 24 Apr 01:06:15 01:09:22 31° 73° (ENE) 01:12:30 437.505
DUCHIFAT 1 24 Apr 01:11:20 01:15:18 43° 99° (E) 01:19:16 145.980
BEESAT 2 24 Apr 01:26:51 01:30:55 76° 61° (ENE) 01:34:56 435.950
UKube-1 24 Apr 01:28:32 01:32:15 29° 71° (ENE) 01:35:58 .
BEESAT 3 24 Apr 01:35:54 01:39:18 27° 248° (WSW) 01:42:39 437.485
POLYITAN 1 24 Apr 01:43:35 01:47:42 57° 285° (WNW) 01:51:48 437.675
QB50P2 24 Apr 01:50:07 01:54:06 43° 286° (WNW) 01:58:04 145.880/145.840
DX 1 24 Apr 01:54:08 01:58:30 88° 77° (ENE) 02:02:55 434.975-435.025
NANOSAT C BR1 24 Apr 02:15:44 02:19:13 26° 289° (WNW) 02:22:41 145.865
SPROUT 24 Apr 02:20:23 02:23:15 17° 265° (W) 02:26:07 437.525
BUGSAT 1 24 Apr 02:26:07 02:30:07 75° 284° (WNW) 02:34:06 437.445
SRMSAT 24 Apr 02:30:10 02:32:52 13° 194° (SSW) 02:35:33 437.500
VELOX 1 24 Apr 02:30:38 02:32:46 13° 267° (W) 02:34:55 145.980
Gurwin Techsat 1B 24 Apr 02:31:58 02:35:42 19° 94° (E) 02:39:24 435.225
50 SAT 24 Apr 02:41:32 02:42:23 11° 267° (W) 02:43:15 437.505
EO-79 24 Apr 02:43:03 02:44:43 12° 293° (WNW) 02:46:24 145.935-145.965
BEESAT 24 Apr 02:45:42 02:48:35 16° 66° (ENE) 02:51:28 436.000
DUCHIFAT 1 24 Apr 02:48:43 02:50:33 13° 293° (WNW) 02:52:23 145.980
Oscar 19 24 Apr 02:54:34 02:59:43 59° 101° (E) 03:04:50 437.125/150
UKube-1 24 Apr 03:05:04 03:08:14 20° 264° (W) 03:11:24 .
MOZHAYETS 4 24 Apr 03:08:26 03:09:50 11° 65° (ENE) 03:11:15
PCSat 24 Apr 03:14:50 03:19:53 42° 110° (ESE) 03:24:58 145.827
ITUPSAT 1 24 Apr 03:22:24 03:26:48 39° 72° (ENE) 03:31:13 437.325
Gurwin Techsat 1B 24 Apr 04:10:46 04:15:46 43° 288° (WNW) 04:20:45 435.225
AO-7 24 Apr 04:13:52 04:20:49 29° 98° (E) 04:27:44 .
ITAMSAT 1 24 Apr 04:14:08 04:18:28 27° 97° (E) 04:22:47 435.822/435.867
BEESAT 24 Apr 04:21:26 04:25:57 44° 260° (W) 04:30:30 436.000
Oscar 19 24 Apr 04:35:43 04:38:28 15° 296° (WNW) 04:41:14 437.125/150
MOZHAYETS 4 24 Apr 04:41:58 04:46:26 59° 259° (W) 04:50:56
NO-84 24 Apr 04:50:50 04:53:28 33° 44° (NE) 04:56:05 435.350 FM
PCSat 24 Apr 04:59:07 05:03:24 23° 306° (NW) 05:07:43 145.827
ITUPSAT 1 24 Apr 05:01:37 05:04:43 17° 265° (W) 05:07:51 437.325
KKS-1 24 Apr 05:16:18 05:20:40 55° 74° (ENE) 05:25:03 437.445
CUBESAT XI-V 24 Apr 05:24:36 05:29:08 61° 75° (ENE) 05:33:44 437.345
YUBILEINY 24 Apr 05:34:29 05:43:06 71° 92° (E) 05:51:43 435.215
ITAMSAT 1 24 Apr 05:53:23 05:57:51 30° 291° (WNW) 06:02:18 435.822/435.867
STARS 24 Apr 05:56:33 06:00:55 66° 76° (ENE) 06:05:18 437.465
AO-7 24 Apr 06:05:47 06:13:47 54° 293° (WNW) 06:21:48 .
CUTE-I 24 Apr 06:41:32 06:43:42 12° 92° (E) 06:45:52 437.470
DOVE 4 24 Apr 06:49:56 06:53:46 26° 95° (E) 06:57:26 437.250
KKS-1 24 Apr 06:56:23 06:57:29 11° 268° (W) 06:58:34 437.445
XW-2F 24 Apr 07:04:54 07:07:48 21° 96° (E) 07:10:42 145.980 - 146.000
CUBESAT XI-V 24 Apr 07:06:26 07:06:51 10° 269° (W) 07:07:15 437.345
RS-15 24 Apr 07:23:58 07:34:08 35° 104° (ESE) 07:44:34 29.354- 29.394
NUDT-PHONESAT 24 Apr 07:25:03 07:28:21 30° 97° (E) 07:31:40 437.300
YUBILEINY 24 Apr 07:34:29 07:40:35 21° 291° (WNW) 07:46:45 435.215
SO-50 24 Apr 07:34:49 07:39:19 53° 116° (ESE) 07:43:48 436.795
XW-2D 24 Apr 07:51:48 07:55:37 80° 282° (WNW) 07:59:25 145.860 - 145.880
XW-2B 24 Apr 07:58:40 08:02:28 66° 283° (WNW) 08:06:14 145.730 - 145.750
M-CUBED/EXP-1 PRIME 24 Apr 07:58:49 08:03:19 75° 72° (ENE) 08:07:59 437.505
STRAND 1 24 Apr 08:03:24 08:08:25 59° 74° (ENE) 08:13:25 437.568
LilacSat-2 24 Apr 08:06:18 08:10:00 48° 285° (WNW) 08:13:43 437.200
XW-2C 24 Apr 08:10:34 08:14:12 44° 285° (WNW) 08:17:51 145.795 - 145.815
KAITUO 1B 24 Apr 08:15:25 08:19:03 49° 284° (WNW) 08:22:42 145.475/437.950
SEEDS 24 Apr 08:16:17 08:17:49 12° 92° (E) 08:19:20 437.485
CUTE-I 24 Apr 08:18:51 08:24:07 64° 286° (WNW) 08:29:21 437.470
HO-68 24 Apr 08:19:31 08:25:46 31° 97° (E) 08:31:56 435.675
XW-2A 24 Apr 08:21:07 08:23:35 19° 96° (E) 08:26:05 145.665 - 145.685
DOVE 4 24 Apr 08:27:40 08:31:18 23° 291° (WNW) 08:34:47 437.250
XW-2F 24 Apr 08:38:57 08:41:48 20° 289° (WNW) 08:44:39 145.980 - 146.000
NUDT-PHONESAT 24 Apr 09:00:04 09:01:59 14° 291° (WNW) 09:03:53 437.300
SO-50 24 Apr 09:17:14 09:20:04 16° 311° (NW) 09:22:54 436.795
ZACube-1 24 Apr 09:19:58 09:22:26 15° 94° (E) 09:24:55 437.345
CUTE 1.7 + AOD 2 24 Apr 09:24:00 09:28:14 59° 285° (WNW) 09:32:26 437.475
Tancredo 1 24 Apr 09:25:13 09:28:14 51° 134° (SE) 09:31:16 437.200
ISS 24 Apr 09:25:23 09:28:24 37° 132° (SE) 09:31:27 437.550
AO-73 24 Apr 09:28:16 09:31:04 17° 95° (E) 09:33:52 145.935
AAUSAT CUBESAT 2 24 Apr 09:30:37 09:34:38 44° 99° (E) 09:38:38 437.432
RS-15 24 Apr 09:33:58 09:45:49 63° 303° (WNW) 09:58:07 29.354- 29.394
STRAND 1 24 Apr 09:45:37 09:47:53 13° 268° (W) 09:50:09 437.568
Oscar 11 24 Apr 09:46:52 09:50:24 24° 96° (E) 09:53:55 .
SEEDS 24 Apr 09:49:36 09:53:41 45° 286° (WNW) 09:57:44 437.485
UWE-3 24 Apr 09:52:47 09:56:59 73° 102° (ESE) 10:01:13 435.000/436.395/437.385
TIGRISAT 24 Apr 09:53:11 09:55:02 13° 67° (ENE) 09:56:53 435.000
XW-2A 24 Apr 09:54:03 09:56:10 16° 289° (WNW) 09:58:19 145.665 - 145.685
CUBEBUG 2 24 Apr 10:00:09 10:04:10 50° 285° (WNW) 10:08:14 437.445
HO-68 24 Apr 10:06:48 10:13:30 43° 292° (WNW) 10:20:10 435.675
FO-29 24 Apr 10:11:36 10:16:42 25° 69° (ENE) 10:21:22 435.910
UNISAT 6 24 Apr 10:11:47 10:15:14 23° 70° (ENE) 10:18:39 437.425
PRISM 24 Apr 10:29:16 10:33:21 65° 76° (ENE) 10:37:29 437.425
OBJECT BX 24 Apr 10:29:51 10:31:29 13° 94° (E) 10:33:07 145.990 - 145.960
O/OREOS (USA 219) 24 Apr 10:33:34 10:35:49 14° 98° (E) 10:38:03 437.305
DELFI C3 24 Apr 10:40:19 10:43:42 26° 96° (E) 10:47:04 145.870
ZACube-1 24 Apr 10:54:56 10:58:46 35° 287° (WNW) 11:02:40 437.345
Tancredo 1 24 Apr 11:02:36 11:04:23 14° 329° (NNW) 11:06:11 437.200
ISS 24 Apr 11:02:37 11:04:59 18° 327° (NNW) 11:07:22 437.550
AO-73 24 Apr 11:03:35 11:07:18 31° 288° (WNW) 11:11:04 145.935
AAUSAT CUBESAT 2 24 Apr 11:07:51 11:09:39 13° 293° (WNW) 11:11:28 437.432
Oscar 11 24 Apr 11:22:55 11:26:23 24° 289° (WNW) 11:29:52 .
TIGRISAT 24 Apr 11:27:00 11:31:18 49° 260° (W) 11:35:31 435.000
LO-87 24 Apr 11:42:53 11:44:26 12° 94° (E) 11:45:58 145.935 - 145.965
UNISAT 6 24 Apr 11:48:05 11:51:47 26° 263° (W) 11:55:27 437.425
RS-15 24 Apr 11:53:13 12:01:32 20° 331° (NNW) 12:09:56 29.354- 29.394
EO-79 24 Apr 11:54:36 11:57:48 21° 70° (ENE) 12:01:01 145.935-145.965
FO-29 24 Apr 11:55:11 12:01:32 44° 260° (W) 12:07:13 435.910
DUCHIFAT 1 24 Apr 12:00:03 12:03:06 20° 70° (ENE) 12:06:10 145.980
OBJECT BX 24 Apr 12:01:59 12:05:12 30° 287° (WNW) 12:08:26 145.990 - 145.960
PCSat 24 Apr 12:07:20 12:10:50 17° 51° (NE) 12:14:19 145.827
O/OREOS (USA 219) 24 Apr 12:10:22 12:14:44 45° 293° (WNW) 12:19:10 437.305
